Butler, GA

4:50 AM EDT on July 25, 2017 (GMT -0400)
Butler

Weather History for K6A1 - October, 2012

Change the Weather History Date:

Friday, October 5, 2012

  Actual Average (KMCN) Record (KMCN)
Temperature  
Mean Temperature 74 °F -  
Max Temperature 87 °F 82 °F 100 °F (1954)
Min Temperature 60 °F 55 °F 37 °F (1974)
Cooling Degree Days 8    
Growing Degree Days 24 (Base 50)    
Moisture  
Dew Point 63 °F    
Average Humidity 77    
Maximum Humidity 100    
Minimum Humidity 37    
Precipitation  
Precipitation 0.00 in - - ()
Sea Level Pressure  
Sea Level Pressure 30.13 in    
Wind  
Wind Speed 2 mph ()    
Max Wind Speed 10 mph    
Max Gust Speed -    
Visibility 10.0 miles    
Events      
Averages and records for this station are not official NWS values.
T = Trace of Precipitation, MM = Missing Value Source: Averaged Metar Reports

Daily Weather History Graph

Daily Weather History Graph

Search for Another Location

Airport or City:

Trip Planner

Search our weather history database for the weather conditions in past years. The results will help you decide how hot, cold, wet, or windy it might be!

Date:

Astronomy

Oct. 05, 2012 Rise Set
Actual Time 7:34 AM EDT 7:15 PM EDT
Civil Twilight 7:09 AM EDT 7:40 PM EDT
Nautical Twilight 6:41 AM EDT 8:08 PM EDT
Astronomical Twilight 6:12 AM EDT 8:37 PM EDT
Moon 10:53 PM EDT (10/5) 12:25 PM EDT (10/5)
Length of Visible Light 12h 30m
Length of Day
11h 41m
Waning Gibbous, 74% of the Moon is Illuminated
Oct 5
Waning Gibbous
Oct 8
Last Quarter
Oct 15
New
Oct 21
First Quarter
Oct 29
Full

Hourly Weather History & Observations

Time (EDT) Temp. Heat Index Dew Point Humidity Pressure Visibility Wind Dir Wind Speed Gust Speed Precip Events Conditions
12:15 AM 64.4 °F - 62.6 °F 94% 30.21 in 10.0 mi Calm Calm - N/A   Unknown
12:35 AM 64.4 °F - 62.6 °F 94% 30.20 in 10.0 mi Calm Calm - N/A   Unknown
12:55 AM 64.4 °F - 62.6 °F 94% 30.20 in 10.0 mi SSW 3.5 mph - N/A   Unknown
1:15 AM 64.4 °F - 62.6 °F 94% 30.20 in 10.0 mi SW 3.5 mph - N/A   Unknown
1:35 AM 62.6 °F - 60.8 °F 94% 30.20 in 10.0 mi SW 3.5 mph - N/A   Unknown
1:55 AM 60.8 °F - 60.8 °F 100% 30.20 in 10.0 mi Calm Calm - N/A   Unknown
2:15 AM 60.8 °F - 60.8 °F 100% 30.20 in 10.0 mi Calm Calm - N/A   Unknown
2:35 AM 60.8 °F - 60.8 °F 100% 30.19 in 10.0 mi Calm Calm - N/A   Unknown
2:55 AM 60.8 °F - 60.8 °F 100% 30.18 in 10.0 mi NW 4.6 mph - N/A   Unknown
3:15 AM 64.4 °F - 60.8 °F 88% 30.18 in 10.0 mi NW 4.6 mph - N/A   Unknown
3:35 AM 64.4 °F - 60.8 °F 88% 30.17 in 10.0 mi NW 3.5 mph - N/A   Unknown
4:15 AM 62.6 °F - 60.8 °F 94% 30.18 in 10.0 mi Calm Calm - N/A   Unknown
4:35 AM 60.8 °F - 60.8 °F 100% 30.17 in 10.0 mi Calm Calm - N/A   Unknown
4:55 AM 60.8 °F - 60.8 °F 100% 30.18 in 10.0 mi Calm Calm - N/A   Unknown
5:15 AM 60.8 °F - 60.8 °F 100% 30.18 in 10.0 mi Calm Calm - N/A   Unknown
5:35 AM 60.8 °F - 60.8 °F 100% 30.19 in 10.0 mi Calm Calm - N/A   Unknown
5:55 AM 60.8 °F - 60.8 °F 100% 30.19 in 10.0 mi North 3.5 mph - N/A   Unknown
6:15 AM 62.6 °F - 60.8 °F 94% 30.19 in 10.0 mi North 3.5 mph - N/A   Unknown
6:35 AM 62.6 °F - 60.8 °F 94% 30.19 in 10.0 mi North 3.5 mph - N/A   Unknown
6:55 AM 62.6 °F - 60.8 °F 94% 30.19 in 10.0 mi Calm Calm - N/A   Unknown
7:15 AM 60.8 °F - 60.8 °F 100% 30.20 in 10.0 mi Calm Calm - N/A   Unknown
7:35 AM 60.8 °F - 60.8 °F 100% 30.19 in 10.0 mi Calm Calm - N/A   Unknown
7:55 AM 62.6 °F - 60.8 °F 94% 30.20 in 10.0 mi North 3.5 mph - N/A   Unknown
8:15 AM 60.8 °F - 60.8 °F 100% 30.20 in 10.0 mi Calm Calm - N/A   Unknown
8:35 AM 62.6 °F - 60.8 °F 94% 30.19 in 10.0 mi Calm Calm - N/A   Unknown
8:55 AM 64.4 °F - 62.6 °F 94% 30.20 in 10.0 mi Calm Calm - N/A   Unknown
9:15 AM 66.2 °F - 62.6 °F 88% 30.20 in 10.0 mi North 3.5 mph - N/A   Unknown
9:35 AM 68.0 °F - 62.6 °F 83% 30.20 in 10.0 mi Calm Calm - N/A   Unknown
9:55 AM 69.8 °F - 62.6 °F 78% 30.19 in 10.0 mi NNE 3.5 mph - N/A   Unknown
10:35 AM 73.4 °F - 62.6 °F 69% 30.19 in 10.0 mi North 4.6 mph - N/A   Unknown
10:55 AM 75.2 °F - 60.8 °F 61% 30.19 in 10.0 mi NE 5.8 mph - N/A   Unknown
11:15 AM 77.0 °F - 60.8 °F 57% 30.18 in 10.0 mi East 6.9 mph - N/A   Unknown
11:35 AM 78.8 °F - 60.8 °F 54% 30.18 in 10.0 mi East 3.5 mph - N/A   Unknown
12:15 PM 80.6 °F 81.5 °F 60.8 °F 51% 30.17 in 10.0 mi East 4.6 mph - N/A   Unknown
12:35 PM 82.4 °F 82.5 °F 59.0 °F 45% 30.17 in 10.0 mi Calm Calm - N/A   Unknown
1:15 PM 82.4 °F 82.9 °F 60.8 °F 48% 30.15 in 10.0 mi Calm Calm - N/A   Unknown
1:35 PM 84.2 °F 83.8 °F 59.0 °F 42% 30.14 in 10.0 mi Calm Calm - N/A   Unknown
1:55 PM 84.2 °F 83.8 °F 59.0 °F 42% 30.13 in 10.0 mi ENE 5.8 mph - N/A   Unknown
2:15 PM 86.0 °F 85.4 °F 59.0 °F 40% 30.12 in 10.0 mi SE 4.6 mph - N/A   Unknown
2:35 PM 86.0 °F 84.9 °F 57.2 °F 37% 30.11 in 10.0 mi Calm Calm - N/A   Unknown
2:55 PM 86.0 °F 85.4 °F 59.0 °F 40% 30.10 in 10.0 mi South 4.6 mph - N/A   Unknown
3:15 PM 86.0 °F 85.4 °F 59.0 °F 40% 30.09 in 10.0 mi South 3.5 mph - N/A   Unknown
3:35 PM 86.0 °F 85.4 °F 59.0 °F 40% 30.08 in 10.0 mi Calm Calm - N/A   Unknown
3:55 PM 87.8 °F 87.6 °F 60.8 °F 40% 30.07 in 10.0 mi South 6.9 mph - N/A   Unknown
4:15 PM 87.8 °F 87.6 °F 60.8 °F 40% 30.06 in 10.0 mi Calm Calm - N/A   Unknown
4:35 PM 86.0 °F 86.6 °F 62.6 °F 45% 30.05 in 10.0 mi SE 10.4 mph - N/A   Unknown
4:55 PM 86.0 °F 86.6 °F 62.6 °F 45% 30.05 in 10.0 mi South 6.9 mph - N/A   Unknown
5:15 PM 86.0 °F 87.3 °F 64.4 °F 48% 30.04 in 10.0 mi South 5.8 mph - N/A   Unknown
5:35 PM 84.2 °F 85.6 °F 64.4 °F 51% 30.04 in 10.0 mi South 6.9 mph - N/A   Unknown
5:55 PM 82.4 °F 83.9 °F 64.4 °F 54% 30.04 in 10.0 mi South 6.9 mph - N/A   Unknown
6:15 PM 80.6 °F 82.3 °F 64.4 °F 58% 30.04 in 10.0 mi South 6.9 mph - N/A   Unknown
6:35 PM 80.6 °F 82.3 °F 64.4 °F 58% 30.04 in 10.0 mi South 5.8 mph - N/A   Unknown
6:55 PM 78.8 °F - 66.2 °F 65% 30.05 in 10.0 mi South 5.8 mph - N/A   Unknown
7:15 PM 77.0 °F - 66.2 °F 69% 30.04 in 10.0 mi South 5.8 mph - N/A   Unknown
7:35 PM 75.2 °F - 66.2 °F 73% 30.05 in 10.0 mi SSW 4.6 mph - N/A   Unknown
7:55 PM 73.4 °F - 68.0 °F 83% 30.04 in 10.0 mi SSW 4.6 mph - N/A   Unknown
8:15 PM 73.4 °F - 68.0 °F 83% 30.05 in 10.0 mi South 3.5 mph - N/A   Unknown
8:35 PM 71.6 °F - 68.0 °F 88% 30.05 in 10.0 mi South 4.6 mph - N/A   Unknown
8:55 PM 71.6 °F - 68.0 °F 88% 30.05 in 10.0 mi South 4.6 mph - N/A   Unknown
9:15 PM 71.6 °F - 68.0 °F 88% 30.05 in 10.0 mi SSW 4.6 mph - N/A   Unknown
9:35 PM 71.6 °F - 68.0 °F 88% 30.06 in 10.0 mi SSW 4.6 mph - N/A   Unknown
9:55 PM 69.8 °F - 68.0 °F 94% 30.07 in 10.0 mi SSW 5.8 mph - N/A   Unknown
10:15 PM 69.8 °F - 68.0 °F 94% 30.07 in 10.0 mi SSW 5.8 mph - N/A   Unknown
10:35 PM 69.8 °F - 68.0 °F 94% 30.07 in 10.0 mi SSW 4.6 mph - N/A   Unknown
10:55 PM 69.8 °F - 69.8 °F 100% 30.07 in 10.0 mi SW 4.6 mph - N/A   Unknown
11:15 PM 69.8 °F - 69.8 °F 100% 30.06 in 10.0 mi SW 4.6 mph - N/A   Unknown
11:35 PM 69.8 °F - 69.8 °F 100% 30.06 in 10.0 mi SW 5.8 mph - N/A   Unknown
11:55 PM 69.8 °F - 69.8 °F 100% 30.06 in 10.0 mi SW 4.6 mph - N/A   Unknown